This demonstration page uses our WeatherBlox Daily Observations layout. Learn more.

41.55636, -103.73856

Hourly Observations for May 24, 2018

Temp ( °F °C ) Dew Point ( °F °C ) Humidity (%) Winds ( mph kmh ) Pressure ( in mb ) Visibility ( mi km ) Precip ( " mm )
12:58 am 00:58 Clear 53 11.8 45 7.4 75 75 E 5 7 29.94 1014 10 16.0934 N/A
1:58 am 01:58 Clear 55 12.5 46 7.6 72 72 ESE 5 7 29.93 1014 10 16.0934 N/A
2:58 am 02:58 Clear 49 9.4 45 7.3 87 87 NW 7 11 29.96 1015 10 16.0934 N/A
3:58 am 03:58 Clear 48 9 45 7 87 87 WNW 8 13 29.97 1015 10 16.0934 N/A
4:58 am 04:58 Clear 49 9.2 45 7 86 86 NW 9 15 29.96 1015 10 16.0934 N/A
5:58 am 05:58 Sunny 49 9.2 45 7.2 87 87 Calm 29.99 1016 10 16.0934 N/A
6:58 am 06:58 Sunny 54 12.4 51 10.5 88 88 WSW 3 6 29.99 1016 10 16.0934 N/A
7:58 am 07:58 Sunny 62 16.8 51 10.3 66 66 WNW 12 19 29.98 1015 10 16.0934 N/A
8:58 am 08:58 Sunny 69 20.6 48 8.7 47 47 WNW 10 17 29.98 1015 10 16.0934 N/A
9:58 am 09:58 Sunny 72 22.1 43 5.9 35 35 WNW 13 20 29.98 1015 10 16.0934 N/A
10:58 am 10:58 Sunny 74 23.6 41 5 30 30 WNW 15 24 29.96 1015 10 16.0934 N/A
11:58 am 11:58 Sunny 76 24.6 43 6 30 30 NW 15 24 29.96 1015 10 16.0934 N/A
12:58 pm 12:58 Mostly Sunny 76 24.7 41 5.2 28 28 W 7 11 29.96 1015 10 16.0934 N/A
1:58 pm 13:58 Partly Cloudy 76 24.2 42 5.5 30 30 WNW 14 22 29.96 1014 10 16.0934 N/A
2:58 pm 14:58 Mostly Sunny 76 24.3 40 4.7 28 28 WNW 13 20 29.96 1015 10 16.0934 N/A
3:58 pm 15:58 Partly Cloudy 72 22.3 47 8.2 41 41 W 8 13 29.98 1015 10 16.0934 N/A
4:58 pm 16:58 Partly Cloudy 73 22.5 41 5 32 32 W 8 13 29.97 1015 10 16.0934 N/A
5:58 pm 17:58 Mostly Sunny 73 22.9 42 5.3 32 32 SW 17 28 29.97 1015 10 16.0934 N/A
6:58 pm 18:58 Sunny 73 22.7 44 6.6 35 35 SW 6 9 29.93 1014 10 16.0934 N/A
7:58 pm 19:58 Sunny 71 21.5 45 7.3 40 40 SW 5 7 29.93 1014 10 16.0934 N/A
8:58 pm 20:58 Clear 64 17.7 48 8.8 56 56 SW 7 11 29.94 1014 10 16.0934 N/A
9:58 pm 21:58 Clear 62 16.5 46 7.8 57 57 WSW 8 13 29.95 1014 10 16.0934 N/A
10:58 pm 22:58 Clear 59 14.8 45 7.4 61 61 W 7 11 29.96 1014 10 16.0934 N/A
11:58 pm 23:58 Clear 55 13 46 7.9 71 71 undefined N/A 29.93 1014 10 16.0934 N/A

Powered by AerisWeather